Time,TemperatureF,DewpointF,PressureIn,WindDirection,WindDirectionDegrees,WindSpeedMPH,WindSpeedGustMPH,Humidity,HourlyPrecipIn,Conditions,Clouds,dailyrainin,SoftwareType,DateUTC
2013-12-13 00:05:00,63.8,59.9,29.85,SW,229,0.0,0.0,87,0.00,,,0.00,Wunderground v.1.15,2013-12-12 13:05:00,
2013-12-13 00:10:00,63.9,60.0,29.85,North,-999,0.0,0.0,87,0.00,,,-99.99,WeatherLink 6.0.3,2013-12-12 13:10:00,
2013-12-13 00:16:00,63.6,60.0,29.85,WSW,245,0.0,0.0,88,0.00,,,0.00,Wunderground v.1.15,2013-12-12 13:16:00,
2013-12-13 00:21:00,63.5,59.9,29.85,WSW,245,0.0,0.0,88,0.00,,,0.00,Wunderground v.1.15,2013-12-12 13:21:00,
2013-12-13 00:26:00,63.3,59.7,29.85,WSW,245,0.0,0.0,88,0.00,,,0.00,Wunderground v.1.15,2013-12-12 13:26:00,
2013-12-13 00:31:00,63.2,59.6,29.85,WSW,245,0.0,0.0,88,0.00,,,0.00,Wunderground v.1.15,2013-12-12 13:31:00,
2013-12-13 00:37:00,63.1,59.5,29.84,WSW,245,0.0,0.0,88,0.00,,,0.00,Wunderground v.1.15,2013-12-12 13:37:00,
2013-12-13 00:43:00,63.0,59.4,29.84,WSW,245,0.0,0.0,88,0.00,,,0.00,Wunderground v.1.15,2013-12-12 13:43:00,
2013-12-13 00:49:00,62.8,59.5,29.84,WSW,245,0.0,0.0,89,0.00,,,0.00,Wunderground v.1.15,2013-12-12 13:49:00,
2013-12-13 00:54:00,62.7,59.4,29.84,WSW,245,0.0,0.0,89,0.00,,,0.00,Wunderground v.1.15,2013-12-12 13:54:00,
2013-12-13 01:00:00,62.8,59.5,29.84,North,-999,0.0,0.0,89,0.00,,,-99.99,WeatherLink 6.0.3,2013-12-12 14:00:00,
2013-12-13 01:06:00,62.3,59.0,29.84,SW,229,0.0,0.0,89,0.00,,,0.00,Wunderground v.1.15,2013-12-12 14:06:00,
2013-12-13 01:11:00,62.1,58.8,29.84,SW,229,0.0,0.0,89,0.00,,,0.00,Wunderground v.1.15,2013-12-12 14:11:00,
2013-12-13 01:17:00,61.8,58.5,29.84,SW,229,0.0,0.0,89,0.00,,,0.00,Wunderground v.1.15,2013-12-12 14:17:00,
2013-12-13 01:23:00,61.6,58.6,29.84,SW,229,0.0,0.0,90,0.00,,,0.00,Wunderground v.1.15,2013-12-12 14:23:00,
2013-12-13 01:29:00,61.6,58.6,29.84,SW,229,0.0,0.0,90,0.00,,,0.00,Wunderground v.1.15,2013-12-12 14:29:00,
2013-12-13 01:35:00,61.5,58.8,29.84,WSW,257,0.0,0.0,91,0.00,,,0.00,Wunderground v.1.15,2013-12-12 14:35:00,
2013-12-13 01:40:00,61.6,58.9,29.84,North,-999,0.0,0.0,91,0.00,,,-99.99,WeatherLink 6.0.3,2013-12-12 14:40:00,
2013-12-13 01:46:00,61.3,58.7,29.84,WSW,257,0.0,0.0,91,0.00,,,0.00,Wunderground v.1.15,2013-12-12 14:46:00,
2013-12-13 01:51:00,61.1,58.5,29.84,WSW,257,0.0,0.0,91,0.00,,,0.00,Wunderground v.1.15,2013-12-12 14:51:00,
2013-12-13 01:56:00,60.9,58.3,29.84,WSW,257,0.0,0.0,91,0.00,,,0.00,Wunderground v.1.15,2013-12-12 14:56:00,
2013-12-13 02:01:00,60.8,58.2,29.84,WSW,258,0.0,0.0,91,0.00,,,0.00,Wunderground v.1.15,2013-12-12 15:01:00,
2013-12-13 02:06:00,60.7,58.1,29.84,WSW,257,0.0,0.0,91,0.00,,,0.00,Wunderground v.1.15,2013-12-12 15:06:00,
2013-12-13 02:11:00,60.6,58.0,29.84,WSW,257,0.0,0.0,91,0.00,,,0.00,Wunderground v.1.15,2013-12-12 15:11:00,
2013-12-13 02:16:00,60.4,58.1,29.83,WSW,258,0.0,0.0,92,0.00,,,0.00,Wunderground v.1.15,2013-12-12 15:16:00,
2013-12-13 02:21:00,60.3,58.0,29.83,WSW,257,0.0,0.0,92,0.00,,,0.00,Wunderground v.1.15,2013-12-12 15:21:00,
2013-12-13 02:26:00,60.1,57.8,29.83,WSW,257,0.0,0.0,92,0.00,,,0.00,Wunderground v.1.15,2013-12-12 15:26:00,
2013-12-13 02:31:00,60.0,57.7,29.84,WSW,257,0.0,0.0,92,0.00,,,0.00,Wunderground v.1.15,2013-12-12 15:31:00,
2013-12-13 02:36:00,59.9,57.6,29.83,WSW,257,0.0,0.0,92,0.00,,,0.00,Wunderground v.1.15,2013-12-12 15:36:00,
2013-12-13 02:41:00,59.9,57.9,29.83,WSW,257,0.0,0.0,93,0.00,,,0.00,Wunderground v.1.15,2013-12-12 15:41:00,
2013-12-13 02:46:00,59.8,57.8,29.83,WSW,257,0.0,0.0,93,0.00,,,0.00,Wunderground v.1.15,2013-12-12 15:46:00,
2013-12-13 02:51:00,59.7,57.7,29.83,WSW,257,0.0,0.0,93,0.00,,,0.00,Wunderground v.1.15,2013-12-12 15:51:00,
2013-12-13 02:56:00,59.6,57.6,29.83,WSW,257,0.0,0.0,93,0.00,,,0.00,Wunderground v.1.15,2013-12-12 15:56:00,
2013-12-13 03:01:00,59.6,57.6,29.83,WSW,257,0.0,0.0,93,0.00,,,0.00,Wunderground v.1.15,2013-12-12 16:01:00,
2013-12-13 03:06:00,59.4,57.4,29.83,WSW,257,0.0,0.0,93,0.00,,,0.00,Wunderground v.1.15,2013-12-12 16:06:00,
2013-12-13 03:11:00,59.2,57.2,29.83,WSW,257,0.0,0.0,93,0.00,,,0.00,Wunderground v.1.15,2013-12-12 16:11:00,
2013-12-13 03:16:00,59.3,57.6,29.83,WSW,257,0.0,0.0,94,0.00,,,0.00,Wunderground v.1.15,2013-12-12 16:16:00,
2013-12-13 03:21:00,59.2,57.5,29.83,WSW,257,0.0,0.0,94,0.00,,,0.00,Wunderground v.1.15,2013-12-12 16:21:00,
2013-12-13 03:26:00,59.1,57.1,29.83,WSW,257,0.0,0.0,93,0.00,,,0.00,Wunderground v.1.15,2013-12-12 16:26:00,
2013-12-13 03:31:00,59.2,57.5,29.83,WSW,257,0.0,0.0,94,0.00,,,0.00,Wunderground v.1.15,2013-12-12 16:31:00,
2013-12-13 03:36:00,59.3,57.6,29.83,WSW,257,0.0,0.0,94,0.00,,,0.00,Wunderground v.1.15,2013-12-12 16:36:00,
2013-12-13 03:41:00,59.2,57.5,29.83,WSW,258,0.0,0.0,94,0.00,,,0.00,Wunderground v.1.15,2013-12-12 16:41:00,
2013-12-13 03:46:00,59.1,57.4,29.83,WSW,258,0.0,0.0,94,0.00,,,0.00,Wunderground v.1.15,2013-12-12 16:46:00,
2013-12-13 03:51:00,58.9,57.2,29.83,WSW,258,0.0,0.0,94,0.00,,,0.00,Wunderground v.1.15,2013-12-12 16:51:00,
2013-12-13 03:56:00,58.7,57.0,29.83,WSW,257,0.0,0.0,94,0.00,,,0.00,Wunderground v.1.15,2013-12-12 16:56:00,
2013-12-13 04:01:00,58.4,56.7,29.83,WSW,257,0.0,0.0,94,0.00,,,0.00,Wunderground v.1.15,2013-12-12 17:01:00,
2013-12-13 04:06:00,58.5,57.1,29.83,WSW,257,0.0,0.0,95,0.00,,,0.00,Wunderground v.1.15,2013-12-12 17:06:00,
2013-12-13 04:11:00,58.5,56.8,29.83,WSW,257,0.0,0.0,94,0.00,,,0.00,Wunderground v.1.15,2013-12-12 17:11:00,
2013-12-13 04:16:00,58.8,57.4,29.83,WSW,257,0.0,0.0,95,0.00,,,0.00,Wunderground v.1.15,2013-12-12 17:16:00,
2013-12-13 04:21:00,58.8,57.4,29.83,WSW,257,0.0,0.0,95,0.00,,,0.00,Wunderground v.1.15,2013-12-12 17:21:00,
2013-12-13 04:26:00,58.9,57.5,29.84,WSW,257,0.0,0.0,95,0.00,,,0.00,Wunderground v.1.15,2013-12-12 17:26:00,
2013-12-13 04:31:00,58.8,57.4,29.83,WSW,257,0.0,0.0,95,0.00,,,0.00,Wunderground v.1.15,2013-12-12 17:31:00,
2013-12-13 04:36:00,58.6,57.2,29.84,WSW,257,0.0,0.0,95,0.00,,,0.00,Wunderground v.1.15,2013-12-12 17:36:00,
2013-12-13 04:41:00,58.6,57.2,29.84,WSW,258,0.0,0.0,95,0.00,,,0.00,Wunderground v.1.15,2013-12-12 17:41:00,
2013-12-13 04:46:00,58.5,57.1,29.84,WSW,257,0.0,0.0,95,0.00,,,0.00,Wunderground v.1.15,2013-12-12 17:46:00,
2013-12-13 04:51:00,58.5,57.1,29.84,WSW,258,0.0,0.0,95,0.00,,,0.00,Wunderground v.1.15,2013-12-12 17:51:00,
2013-12-13 04:56:00,58.3,56.9,29.84,WSW,257,0.0,0.0,95,0.00,,,0.00,Wunderground v.1.15,2013-12-12 17:56:00,
2013-12-13 05:01:00,58.2,56.8,29.84,WSW,257,0.0,0.0,95,0.00,,,0.00,Wunderground v.1.15,2013-12-12 18:01:00,
2013-12-13 05:06:00,58.2,56.8,29.85,WSW,257,0.0,0.0,95,0.00,,,0.00,Wunderground v.1.15,2013-12-12 18:06:00,
2013-12-13 05:11:00,58.1,56.7,29.85,WSW,258,0.0,0.0,95,0.00,,,0.00,Wunderground v.1.15,2013-12-12 18:11:00,
2013-12-13 05:16:00,57.9,56.5,29.85,WSW,257,0.0,0.0,95,0.00,,,0.00,Wunderground v.1.15,2013-12-12 18:16:00,
2013-12-13 05:21:00,57.7,56.3,29.85,WSW,257,0.0,0.0,95,0.00,,,0.00,Wunderground v.1.15,2013-12-12 18:21:00,
2013-12-13 05:26:00,57.5,56.1,29.85,WSW,257,0.0,0.0,95,0.00,,,0.00,Wunderground v.1.15,2013-12-12 18:26:00,
2013-12-13 05:31:00,57.2,55.8,29.85,WSW,257,0.0,0.0,95,0.00,,,0.00,Wunderground v.1.15,2013-12-12 18:31:00,
2013-12-13 05:36:00,57.0,55.6,29.85,WSW,257,0.0,0.0,95,0.00,,,0.00,Wunderground v.1.15,2013-12-12 18:36:00,
2013-12-13 05:41:00,57.0,55.6,29.86,WSW,257,0.0,0.0,95,0.00,,,0.00,Wunderground v.1.15,2013-12-12 18:41:00,
2013-12-13 05:46:00,57.3,56.2,29.86,WSW,257,0.0,0.0,96,0.00,,,0.00,Wunderground v.1.15,2013-12-12 18:46:00,
2013-12-13 05:51:00,57.3,55.9,29.86,WSW,257,0.0,0.0,95,0.00,,,0.00,Wunderground v.1.15,2013-12-12 18:51:00,
2013-12-13 05:56:00,57.1,55.7,29.86,WSW,257,0.0,0.0,95,0.00,,,0.00,Wunderground v.1.15,2013-12-12 18:56:00,
2013-12-13 06:01:00,57.2,55.8,29.86,WSW,257,0.0,0.0,95,0.00,,,0.00,Wunderground v.1.15,2013-12-12 19:01:00,
2013-12-13 06:06:00,57.3,56.2,29.86,WSW,257,0.0,0.0,96,0.00,,,0.00,Wunderground v.1.15,2013-12-12 19:06:00,
2013-12-13 06:11:00,57.5,56.4,29.87,WSW,257,0.0,0.0,96,0.00,,,0.00,Wunderground v.1.15,2013-12-12 19:11:00,
2013-12-13 06:16:00,57.6,56.5,29.87,WSW,257,0.0,0.0,96,0.00,,,0.00,Wunderground v.1.15,2013-12-12 19:16:00,
2013-12-13 06:21:00,58.3,57.2,29.87,WSW,257,0.0,0.0,96,0.00,,,0.00,Wunderground v.1.15,2013-12-12 19:21:00,
2013-12-13 06:26:00,59.5,58.6,29.87,WSW,257,0.0,0.0,97,0.00,,,0.00,Wunderground v.1.15,2013-12-12 19:26:00,
2013-12-13 06:31:00,60.7,59.8,29.87,WSW,257,0.0,0.0,97,0.00,,,0.00,Wunderground v.1.15,2013-12-12 19:31:00,
2013-12-13 06:36:00,61.1,60.2,29.87,WSW,257,0.0,0.0,97,0.00,,,0.00,Wunderground v.1.15,2013-12-12 19:36:00,
2013-12-13 06:41:00,61.3,60.4,29.88,West,267,0.0,0.0,97,0.00,,,0.00,Wunderground v.1.15,2013-12-12 19:41:00,
2013-12-13 06:46:00,61.8,60.9,29.88,West,266,0.0,1.0,97,0.00,,,0.00,Wunderground v.1.15,2013-12-12 19:46:00,
2013-12-13 06:51:00,62.6,61.4,29.88,West,266,0.0,0.0,96,0.00,,,0.00,Wunderground v.1.15,2013-12-12 19:51:00,
2013-12-13 06:56:00,63.3,62.1,29.88,West,266,0.0,1.0,96,0.00,,,0.00,Wunderground v.1.15,2013-12-12 19:56:00,
2013-12-13 07:01:00,62.7,61.5,29.88,North,-999,0.0,0.0,96,0.00,,,-99.99,WeatherLink 6.0.3,2013-12-12 20:01:00,
2013-12-13 07:06:00,65.1,62.4,29.88,West,264,0.0,1.0,91,0.00,,,0.00,Wunderground v.1.15,2013-12-12 20:06:00,
2013-12-13 07:11:00,66.0,62.3,29.89,East,89,0.0,1.0,88,0.00,,,0.00,Wunderground v.1.15,2013-12-12 20:11:00,
2013-12-13 07:16:00,66.9,62.2,29.89,East,89,0.0,1.0,85,0.00,,,0.00,Wunderground v.1.15,2013-12-12 20:16:00,
2013-12-13 07:21:00,67.6,62.6,29.89,SSW,204,0.0,0.0,84,0.00,,,0.00,Wunderground v.1.15,2013-12-12 20:21:00,
2013-12-13 07:26:00,68.3,62.9,29.89,SSW,205,0.0,1.0,83,0.00,,,0.00,Wunderground v.1.15,2013-12-12 20:26:00,
2013-12-13 07:31:00,69.5,63.8,29.89,SSW,204,0.0,1.0,82,0.00,,,0.00,Wunderground v.1.15,2013-12-12 20:31:00,
2013-12-13 07:36:00,70.5,64.0,29.89,WNW,295,0.0,1.0,80,0.00,,,0.00,Wunderground v.1.15,2013-12-12 20:36:00,
2013-12-13 07:41:00,71.8,63.8,29.89,SSW,198,0.0,0.0,76,0.00,,,0.00,Wunderground v.1.15,2013-12-12 20:41:00,
2013-12-13 07:46:00,73.1,64.7,29.89,SSW,198,0.0,1.0,75,0.00,,,0.00,Wunderground v.1.15,2013-12-12 20:46:00,
2013-12-13 07:51:00,73.1,63.9,29.89,NE,54,0.0,1.0,73,0.00,,,0.00,Wunderground v.1.15,2013-12-12 20:51:00,
2013-12-13 07:56:00,72.8,64.0,29.89,NE,55,0.0,1.0,74,0.00,,,0.00,Wunderground v.1.15,2013-12-12 20:56:00,
2013-12-13 08:01:00,72.3,64.3,29.89,ENE,65,0.0,0.0,76,0.00,,,0.00,Wunderground v.1.15,2013-12-12 21:01:00,
2013-12-13 08:06:00,73.1,65.1,29.89,North,352,0.0,1.0,76,0.00,,,0.00,Wunderground v.1.15,2013-12-12 21:06:00,
2013-12-13 08:11:00,73.9,64.3,29.89,ESE,118,0.0,1.0,72,0.00,,,0.00,Wunderground v.1.15,2013-12-12 21:11:00,
2013-12-13 08:16:00,74.2,65.0,29.89,South,188,0.0,1.0,73,0.00,,,0.00,Wunderground v.1.15,2013-12-12 21:16:00,
2013-12-13 08:21:00,74.1,64.1,29.89,ENE,65,0.0,1.0,71,0.00,,,0.00,Wunderground v.1.15,2013-12-12 21:21:00,
2013-12-13 08:26:00,74.3,64.7,29.89,WNW,283,0.0,1.0,72,0.00,,,0.00,Wunderground v.1.15,2013-12-12 21:26:00,
2013-12-13 08:31:00,74.8,64.8,29.89,NE,55,0.0,2.0,71,0.00,,,0.00,Wunderground v.1.15,2013-12-12 21:31:00,
2013-12-13 08:36:00,74.9,64.5,29.89,SSW,197,1.0,2.0,70,0.00,,,0.00,Wunderground v.1.15,2013-12-12 21:36:00,
2013-12-13 08:41:00,74.6,64.6,29.89,NE,41,2.0,2.0,71,0.00,,,0.00,Wunderground v.1.15,2013-12-12 21:41:00,
2013-12-13 08:46:00,74.8,64.4,29.89,SE,136,1.0,2.0,70,0.00,,,0.00,Wunderground v.1.15,2013-12-12 21:46:00,
2013-12-13 08:51:00,75.1,65.5,29.89,NNE,32,0.0,1.0,72,0.00,,,0.00,Wunderground v.1.15,2013-12-12 21:51:00,
2013-12-13 08:56:00,75.3,64.8,29.89,ENE,66,0.0,2.0,70,0.00,,,0.00,Wunderground v.1.15,2013-12-12 21:56:00,
2013-12-13 09:01:00,75.8,65.3,29.89,West,273,1.0,2.0,70,0.00,,,0.00,Wunderground v.1.15,2013-12-12 22:01:00,
2013-12-13 09:06:00,76.1,65.2,29.89,ENE,76,0.0,2.0,69,0.00,,,0.00,Wunderground v.1.15,2013-12-12 22:06:00,
2013-12-13 09:11:00,76.4,65.1,29.89,West,277,0.0,1.0,68,0.00,,,0.00,Wunderground v.1.15,2013-12-12 22:11:00,
2013-12-13 09:16:00,77.0,65.2,29.89,SSE,166,2.0,3.0,67,0.00,,,0.00,Wunderground v.1.15,2013-12-12 22:16:00,
2013-12-13 09:21:00,77.1,64.4,29.89,East,84,0.0,2.0,65,0.00,,,0.00,Wunderground v.1.15,2013-12-12 22:21:00,
2013-12-13 09:26:00,77.5,64.8,29.89,NE,53,0.0,2.0,65,0.00,,,0.00,Wunderground v.1.15,2013-12-12 22:26:00,
2013-12-13 09:31:00,78.1,65.8,29.89,West,266,1.0,2.0,66,0.00,,,0.00,Wunderground v.1.15,2013-12-12 22:31:00,
2013-12-13 09:36:00,78.6,65.4,29.88,WNW,289,2.0,2.0,64,0.00,,,0.00,Wunderground v.1.15,2013-12-12 22:36:00,
2013-12-13 09:41:00,78.9,64.8,29.88,SSW,207,1.0,2.0,62,0.00,,,0.00,Wunderground v.1.15,2013-12-12 22:41:00,
2013-12-13 09:46:00,79.0,64.9,29.88,ENE,77,2.0,5.0,62,0.00,,,0.00,Wunderground v.1.15,2013-12-12 22:46:00,
2013-12-13 09:51:00,79.4,64.8,29.88,ENE,69,2.0,3.0,61,0.00,,,0.00,Wunderground v.1.15,2013-12-12 22:51:00,
2013-12-13 09:56:00,79.3,64.7,29.88,NE,49,1.0,3.0,61,0.00,,,0.00,Wunderground v.1.15,2013-12-12 22:56:00,
2013-12-13 10:01:00,79.6,64.5,29.88,SW,233,2.0,4.0,60,0.00,,,0.00,Wunderground v.1.15,2013-12-12 23:01:00,
2013-12-13 10:06:00,79.8,64.2,29.88,ENE,65,0.0,4.0,59,0.00,,,0.00,Wunderground v.1.15,2013-12-12 23:06:00,
2013-12-13 10:11:00,79.8,65.6,29.88,NE,40,0.0,3.0,62,0.00,,,0.00,Wunderground v.1.15,2013-12-12 23:11:00,
2013-12-13 10:16:00,80.3,64.7,29.88,South,188,1.0,4.0,59,0.00,,,0.00,Wunderground v.1.15,2013-12-12 23:16:00,
2013-12-13 10:21:00,80.5,64.9,29.88,SSW,206,2.0,3.0,59,0.00,,,0.00,Wunderground v.1.15,2013-12-12 23:21:00,
2013-12-13 10:26:00,81.0,66.3,29.88,ESE,119,1.0,3.0,61,0.00,,,0.00,Wunderground v.1.15,2013-12-12 23:26:00,
2013-12-13 10:31:00,81.3,65.6,29.87,ENE,60,1.0,2.0,59,0.00,,,0.00,Wunderground v.1.15,2013-12-12 23:31:00,
2013-12-13 10:36:00,82.1,64.8,29.87,SSW,195,2.0,3.0,56,0.00,,,0.00,Wunderground v.1.15,2013-12-12 23:36:00,
2013-12-13 10:41:00,82.2,64.4,29.87,SE,136,0.0,1.0,55,0.00,,,0.00,Wunderground v.1.15,2013-12-12 23:41:00,
2013-12-13 10:46:00,82.8,65.5,29.87,NE,42,1.0,2.0,56,0.00,,,0.00,Wunderground v.1.15,2013-12-12 23:46:00,
2013-12-13 10:51:00,83.9,64.9,29.87,NE,56,0.0,2.0,53,0.00,,,0.00,Wunderground v.1.15,2013-12-12 23:51:00,
2013-12-13 10:56:00,84.2,65.8,29.87,West,275,2.0,2.0,54,0.00,,,0.00,Wunderground v.1.15,2013-12-12 23:56:00,
2013-12-13 11:01:00,84.8,66.3,29.87,SSW,209,1.0,3.0,54,0.00,,,0.00,Wunderground v.1.15,2013-12-13 00:01:00,
2013-12-13 11:06:00,84.4,64.9,29.87,SSW,212,1.0,4.0,52,0.00,,,0.00,Wunderground v.1.15,2013-12-13 00:06:00,
2013-12-13 11:11:00,84.6,65.6,29.87,NNE,32,1.0,2.0,53,0.00,,,0.00,Wunderground v.1.15,2013-12-13 00:11:00,
2013-12-13 11:16:00,84.7,65.7,29.86,SE,131,1.0,3.0,53,0.00,,,0.00,Wunderground v.1.15,2013-12-13 00:16:00,
2013-12-13 11:21:00,84.3,64.8,29.86,SE,143,1.0,3.0,52,0.00,,,0.00,Wunderground v.1.15,2013-12-13 00:21:00,
2013-12-13 11:27:00,84.3,65.8,29.86,ENE,75,2.0,3.0,54,0.00,,,0.00,Wunderground v.1.15,2013-12-13 00:27:00,
2013-12-13 11:32:00,84.7,65.1,29.86,NE,41,0.0,2.0,52,0.00,,,0.00,Wunderground v.1.15,2013-12-13 00:32:00,
2013-12-13 11:37:00,85.1,66.0,29.86,WSW,248,1.0,4.0,53,0.00,,,0.00,Wunderground v.1.15,2013-12-13 00:37:00,
2013-12-13 11:42:00,85.4,65.8,29.85,SSW,202,2.0,4.0,52,0.00,,,0.00,Wunderground v.1.15,2013-12-13 00:42:00,
2013-12-13 11:47:00,85.8,64.4,29.85,NE,41,2.0,5.0,49,0.00,,,0.00,Wunderground v.1.15,2013-12-13 00:47:00,
2013-12-13 11:52:00,86.1,64.7,29.85,NNW,339,2.0,2.0,49,0.00,,,0.00,Wunderground v.1.15,2013-12-13 00:52:00,
2013-12-13 11:57:00,86.8,67.1,29.85,West,279,2.0,3.0,52,0.00,,,0.00,Wunderground v.1.15,2013-12-13 00:57:00,
2013-12-13 12:02:00,86.9,64.8,29.85,NE,46,1.0,2.0,48,0.00,,,0.00,Wunderground v.1.15,2013-12-13 01:02:00,
2013-12-13 12:07:00,86.8,64.8,29.85,SW,221,3.0,5.0,48,0.00,,,0.00,Wunderground v.1.15,2013-12-13 01:07:00,
2013-12-13 12:12:00,86.8,64.8,29.85,South,174,0.0,3.0,48,0.00,,,0.00,Wunderground v.1.15,2013-12-13 01:12:00,
2013-12-13 12:17:00,87.1,66.8,29.84,ENE,68,0.0,3.0,51,0.00,,,0.00,Wunderground v.1.15,2013-12-13 01:17:00,
2013-12-13 12:22:00,87.4,66.5,29.84,NE,39,2.0,5.0,50,0.00,,,0.00,Wunderground v.1.15,2013-12-13 01:22:00,
2013-12-13 12:28:00,88.0,65.2,29.84,ESE,120,0.0,5.0,47,0.00,,,0.00,Wunderground v.1.15,2013-12-13 01:28:00,
2013-12-13 12:33:00,88.4,65.0,29.84,SSW,192,0.0,1.0,46,0.00,,,0.00,Wunderground v.1.15,2013-12-13 01:33:00,
2013-12-13 12:39:00,88.4,63.7,29.84,SE,143,0.0,3.0,44,0.00,,,0.00,Wunderground v.1.15,2013-12-13 01:39:00,
2013-12-13 12:44:00,88.1,63.4,29.83,NE,34,4.0,7.0,44,0.00,,,0.00,Wunderground v.1.15,2013-12-13 01:44:00,
2013-12-13 12:49:00,87.6,64.9,29.83,WSW,248,2.0,7.0,47,0.00,,,0.00,Wunderground v.1.15,2013-12-13 01:49:00,
2013-12-13 12:54:00,88.2,62.9,29.83,NE,51,3.0,4.0,43,0.00,,,0.00,Wunderground v.1.15,2013-12-13 01:54:00,
2013-12-13 12:59:00,87.9,61.9,29.83,East,82,1.0,4.0,42,0.00,,,0.00,Wunderground v.1.15,2013-12-13 01:59:00,
2013-12-13 13:04:00,88.2,64.8,29.82,NNE,28,3.0,6.0,46,0.00,,,0.00,Wunderground v.1.15,2013-12-13 02:04:00,
2013-12-13 13:09:00,88.2,61.5,29.83,NE,39,6.0,7.0,41,0.00,,,0.00,Wunderground v.1.15,2013-12-13 02:09:00,
2013-12-13 13:14:00,88.3,62.3,29.82,NNE,17,1.0,7.0,42,0.00,,,0.00,Wunderground v.1.15,2013-12-13 02:14:00,
2013-12-13 13:19:00,88.6,61.2,29.82,NNE,15,4.0,7.0,40,0.00,,,0.00,Wunderground v.1.15,2013-12-13 02:19:00,
2013-12-13 13:24:00,88.9,61.5,29.82,NNE,23,4.0,8.0,40,0.00,,,0.00,Wunderground v.1.15,2013-12-13 02:24:00,
2013-12-13 13:29:00,88.8,62.1,29.82,ESE,113,6.0,8.0,41,0.00,,,0.00,Wunderground v.1.15,2013-12-13 02:29:00,
2013-12-13 13:34:00,88.4,62.4,29.81,East,80,2.0,8.0,42,0.00,,,0.00,Wunderground v.1.15,2013-12-13 02:34:00,
2013-12-13 13:39:00,89.3,63.2,29.81,NE,42,8.0,8.0,42,0.00,,,0.00,Wunderground v.1.15,2013-12-13 02:39:00,
2013-12-13 13:44:00,88.9,62.2,29.81,NE,46,3.0,7.0,41,0.00,,,0.00,Wunderground v.1.15,2013-12-13 02:44:00,
2013-12-13 13:49:00,89.2,62.4,29.81,ENE,72,3.0,7.0,41,0.00,,,0.00,Wunderground v.1.15,2013-12-13 02:49:00,
2013-12-13 13:54:00,89.8,61.5,29.80,NNE,30,4.0,7.0,39,0.00,,,0.00,Wunderground v.1.15,2013-12-13 02:54:00,
2013-12-13 13:59:00,89.8,62.3,29.80,NE,37,3.0,7.0,40,0.00,,,0.00,Wunderground v.1.15,2013-12-13 02:59:00,
2013-12-13 14:04:00,89.4,61.2,29.80,ESE,105,1.0,8.0,39,0.00,,,0.00,Wunderground v.1.15,2013-12-13 03:04:00,
2013-12-13 14:09:00,90.0,63.1,29.80,ENE,63,3.0,8.0,41,0.00,,,0.00,Wunderground v.1.15,2013-12-13 03:09:00,
2013-12-13 14:14:00,90.1,63.2,29.79,NE,37,9.0,9.0,41,0.00,,,0.00,Wunderground v.1.15,2013-12-13 03:14:00,
2013-12-13 14:19:00,89.6,61.4,29.79,NNE,30,1.0,10.0,39,0.00,,,0.00,Wunderground v.1.15,2013-12-13 03:19:00,
2013-12-13 14:24:00,89.5,61.3,29.79,East,87,1.0,6.0,39,0.00,,,0.00,Wunderground v.1.15,2013-12-13 03:24:00,
2013-12-13 14:29:00,89.7,62.9,29.79,NW,313,0.0,6.0,41,0.00,,,0.00,Wunderground v.1.15,2013-12-13 03:29:00,
2013-12-13 14:34:00,90.2,63.3,29.78,NE,41,4.0,4.0,41,0.00,,,0.00,Wunderground v.1.15,2013-12-13 03:34:00,
2013-12-13 14:39:00,90.1,62.5,29.78,NNE,30,1.0,7.0,40,0.00,,,0.00,Wunderground v.1.15,2013-12-13 03:39:00,
2013-12-13 14:44:00,89.9,61.6,29.78,NE,47,2.0,7.0,39,0.00,,,0.00,Wunderground v.1.15,2013-12-13 03:44:00,
2013-12-13 14:49:00,89.7,62.2,29.78,NNE,31,1.0,7.0,40,0.00,,,0.00,Wunderground v.1.15,2013-12-13 03:49:00,
2013-12-13 14:54:00,90.1,62.5,29.78,NNE,27,2.0,8.0,40,0.00,,,0.00,Wunderground v.1.15,2013-12-13 03:54:00,
2013-12-13 14:59:00,90.7,61.6,29.77,NE,49,0.0,8.0,38,0.00,,,0.00,Wunderground v.1.15,2013-12-13 03:59:00,
2013-12-13 15:04:00,91.5,63.1,29.77,NE,54,3.0,4.0,39,0.00,,,0.00,Wunderground v.1.15,2013-12-13 04:04:00,
2013-12-13 15:09:00,91.9,61.1,29.77,NE,46,1.0,5.0,36,0.00,,,0.00,Wunderground v.1.15,2013-12-13 04:09:00,
2013-12-13 15:14:00,91.8,62.6,29.77,NE,34,1.0,6.0,38,0.00,,,0.00,Wunderground v.1.15,2013-12-13 04:14:00,
2013-12-13 15:19:00,91.5,63.8,29.77,NE,44,1.0,6.0,40,0.00,,,0.00,Wunderground v.1.15,2013-12-13 04:19:00,
2013-12-13 15:24:00,90.7,63.8,29.77,ENE,78,5.0,11.0,41,0.00,,,0.00,Wunderground v.1.15,2013-12-13 04:24:00,
2013-12-13 15:29:00,90.1,65.2,29.76,NNE,23,6.0,11.0,44,0.00,,,0.00,Wunderground v.1.15,2013-12-13 04:29:00,
2013-12-13 15:34:00,90.1,65.9,29.76,NE,38,8.0,9.0,45,0.00,,,0.00,Wunderground v.1.15,2013-12-13 04:34:00,
2013-12-13 15:39:00,89.4,65.9,29.76,SSE,160,2.0,10.0,46,0.00,,,0.00,Wunderground v.1.15,2013-12-13 04:39:00,
2013-12-13 15:44:00,88.9,65.4,29.76,ENE,70,6.0,12.0,46,0.00,,,0.00,Wunderground v.1.15,2013-12-13 04:44:00,
2013-12-13 15:49:00,88.3,64.9,29.76,NNE,27,3.0,12.0,46,0.00,,,0.00,Wunderground v.1.15,2013-12-13 04:49:00,
2013-12-13 15:54:00,88.3,66.7,29.76,SE,134,3.0,8.0,49,0.00,,,0.00,Wunderground v.1.15,2013-12-13 04:54:00,
2013-12-13 15:59:00,88.2,66.0,29.76,SE,140,3.0,10.0,48,0.00,,,0.00,Wunderground v.1.15,2013-12-13 04:59:00,
2013-12-13 16:01:00,88.1,67.1,29.76,North,10,6.0,6.0,50,0.00,,,0.00,Wunderground v.1.15,2013-12-13 05:01:00,
2013-12-13 16:07:00,88.1,65.9,29.76,ENE,65,4.0,11.0,48,0.00,,,0.00,Wunderground v.1.15,2013-12-13 05:07:00,
2013-12-13 16:12:00,87.7,66.8,29.76,ESE,117,5.0,10.0,50,0.00,,,0.00,Wunderground v.1.15,2013-12-13 05:12:00,
2013-12-13 16:17:00,87.2,66.3,29.76,East,82,3.0,10.0,50,0.00,,,0.00,Wunderground v.1.15,2013-12-13 05:17:00,
2013-12-13 16:22:00,86.8,66.5,29.76,NNE,27,6.0,8.0,51,0.00,,,0.00,Wunderground v.1.15,2013-12-13 05:22:00,
2013-12-13 16:27:00,86.8,66.5,29.76,ENE,76,6.0,10.0,51,0.00,,,0.00,Wunderground v.1.15,2013-12-13 05:27:00,
2013-12-13 16:32:00,86.7,66.4,29.76,NE,45,3.0,5.0,51,0.00,,,0.00,Wunderground v.1.15,2013-12-13 05:32:00,
2013-12-13 16:37:00,86.6,66.9,29.76,ENE,73,3.0,12.0,52,0.00,,,0.00,Wunderground v.1.15,2013-12-13 05:37:00,
2013-12-13 16:42:00,86.9,66.6,29.76,NE,50,3.0,10.0,51,0.00,,,0.00,Wunderground v.1.15,2013-12-13 05:42:00,
2013-12-13 16:47:00,86.6,65.7,29.76,East,83,6.0,10.0,50,0.00,,,0.00,Wunderground v.1.15,2013-12-13 05:47:00,
2013-12-13 16:52:00,85.3,65.7,29.76,ESE,115,2.0,8.0,52,0.00,,,0.00,Wunderground v.1.15,2013-12-13 05:52:00,
2013-12-13 16:57:00,84.4,65.4,29.76,NE,46,2.0,9.0,53,0.00,,,0.00,Wunderground v.1.15,2013-12-13 05:57:00,
2013-12-13 17:02:00,83.8,65.4,29.76,SE,124,3.0,4.0,54,0.00,,,0.00,Wunderground v.1.15,2013-12-13 06:02:00,
2013-12-13 17:07:00,83.4,65.5,29.75,NE,47,4.0,7.0,55,0.00,,,0.00,Wunderground v.1.15,2013-12-13 06:07:00,
2013-12-13 17:12:00,82.9,64.0,29.76,SE,132,2.0,10.0,53,0.00,,,0.00,Wunderground v.1.15,2013-12-13 06:12:00,
2013-12-13 17:17:00,82.5,64.2,29.76,NE,46,6.0,11.0,54,0.00,,,0.00,Wunderground v.1.15,2013-12-13 06:17:00,
2013-12-13 17:22:00,82.3,64.5,29.76,NE,52,4.0,9.0,55,0.00,,,0.00,Wunderground v.1.15,2013-12-13 06:22:00,
2013-12-13 17:27:00,82.2,64.9,29.76,NE,49,5.0,9.0,56,0.00,,,0.00,Wunderground v.1.15,2013-12-13 06:27:00,
2013-12-13 17:32:00,82.0,65.3,29.76,East,94,4.0,5.0,57,0.00,,,0.00,Wunderground v.1.15,2013-12-13 06:32:00,
2013-12-13 17:37:00,82.1,66.4,29.76,NE,42,3.0,6.0,59,0.00,,,0.00,Wunderground v.1.15,2013-12-13 06:37:00,
2013-12-13 17:42:00,82.3,66.5,29.76,NE,38,2.0,5.0,59,0.00,,,0.00,Wunderground v.1.15,2013-12-13 06:42:00,
2013-12-13 17:47:00,82.4,66.1,29.76,ENE,75,8.0,14.0,58,0.00,,,0.00,Wunderground v.1.15,2013-12-13 06:47:00,
2013-12-13 17:52:00,82.2,66.9,29.76,NE,34,5.0,8.0,60,0.00,,,0.00,Wunderground v.1.15,2013-12-13 06:52:00,
2013-12-13 17:57:00,82.1,66.4,29.76,NNE,23,3.0,12.0,59,0.00,,,0.00,Wunderground v.1.15,2013-12-13 06:57:00,
2013-12-13 18:02:00,82.3,66.5,29.76,East,80,4.0,6.0,59,0.00,,,0.00,Wunderground v.1.15,2013-12-13 07:02:00,
2013-12-13 18:07:00,81.9,66.6,29.76,ENE,70,3.0,9.0,60,0.00,,,0.00,Wunderground v.1.15,2013-12-13 07:07:00,
2013-12-13 18:12:00,81.9,66.6,29.77,NE,55,3.0,5.0,60,0.00,,,0.00,Wunderground v.1.15,2013-12-13 07:12:00,
2013-12-13 18:17:00,81.7,66.5,29.77,ENE,60,5.0,9.0,60,0.00,,,0.00,Wunderground v.1.15,2013-12-13 07:17:00,
2013-12-13 18:22:00,81.3,66.6,29.77,East,82,3.0,5.0,61,0.00,,,0.00,Wunderground v.1.15,2013-12-13 07:22:00,
2013-12-13 18:27:00,80.7,66.9,29.77,South,174,3.0,7.0,63,0.00,,,0.00,Wunderground v.1.15,2013-12-13 07:27:00,
2013-12-13 18:32:00,80.3,67.0,29.77,East,89,1.0,6.0,64,0.00,,,0.00,Wunderground v.1.15,2013-12-13 07:32:00,
2013-12-13 18:37:00,80.0,67.2,29.78,NNE,25,3.0,6.0,65,0.00,,,0.00,Wunderground v.1.15,2013-12-13 07:37:00,
2013-12-13 18:42:00,79.7,67.3,29.78,SE,127,2.0,4.0,66,0.00,,,0.00,Wunderground v.1.15,2013-12-13 07:42:00,
2013-12-13 18:47:00,79.6,67.7,29.78,ENE,58,1.0,7.0,67,0.00,,,0.00,Wunderground v.1.15,2013-12-13 07:47:00,
2013-12-13 18:52:00,79.4,67.5,29.78,NNE,27,1.0,3.0,67,0.00,,,0.00,Wunderground v.1.15,2013-12-13 07:52:00,
2013-12-13 18:57:00,79.5,68.0,29.78,ESE,114,3.0,4.0,68,0.00,,,0.00,Wunderground v.1.15,2013-12-13 07:57:00,
2013-12-13 19:02:00,79.5,68.0,29.78,ESE,110,2.0,4.0,68,0.00,,,0.00,Wunderground v.1.15,2013-12-13 08:02:00,
2013-12-13 19:07:00,79.4,68.3,29.79,SE,124,2.0,4.0,69,0.00,,,0.00,Wunderground v.1.15,2013-12-13 08:07:00,
2013-12-13 19:12:00,79.4,68.3,29.79,East,84,1.0,3.0,69,0.00,,,0.00,Wunderground v.1.15,2013-12-13 08:12:00,
2013-12-13 19:17:00,79.2,68.1,29.79,East,82,2.0,6.0,69,0.00,,,0.00,Wunderground v.1.15,2013-12-13 08:17:00,
2013-12-13 19:22:00,78.8,68.2,29.79,SE,129,3.0,6.0,70,0.00,,,0.00,Wunderground v.1.15,2013-12-13 08:22:00,
2013-12-13 19:27:00,78.5,68.3,29.79,ENE,73,1.0,6.0,71,0.00,,,0.00,Wunderground v.1.15,2013-12-13 08:27:00,
2013-12-13 19:32:00,78.2,68.0,29.80,NE,38,1.0,6.0,71,0.00,,,0.00,Wunderground v.1.15,2013-12-13 08:32:00,
2013-12-13 19:37:00,77.9,67.7,29.80,East,98,1.0,8.0,71,0.00,,,0.00,Wunderground v.1.15,2013-12-13 08:37:00,
2013-12-13 19:42:00,77.6,67.9,29.80,SE,141,1.0,4.0,72,0.00,,,0.00,Wunderground v.1.15,2013-12-13 08:42:00,
2013-12-13 19:47:00,77.3,67.6,29.80,East,87,1.0,4.0,72,0.00,,,0.00,Wunderground v.1.15,2013-12-13 08:47:00,
2013-12-13 19:52:00,77.1,67.8,29.80,SSE,148,4.0,4.0,73,0.00,,,0.00,Wunderground v.1.15,2013-12-13 08:52:00,
2013-12-13 19:58:00,76.8,67.5,29.80,ENE,68,1.0,5.0,73,0.00,,,0.00,Wunderground v.1.15,2013-12-13 08:58:00,
2013-12-13 20:03:00,76.6,67.7,29.80,SSE,162,0.0,2.0,74,0.00,,,0.00,Wunderground v.1.15,2013-12-13 09:03:00,
2013-12-13 20:08:00,76.4,67.5,29.80,SSE,157,3.0,3.0,74,0.00,,,0.00,Wunderground v.1.15,2013-12-13 09:08:00,
2013-12-13 20:13:00,76.3,67.4,29.81,NE,48,0.0,3.0,74,0.00,,,0.00,Wunderground v.1.15,2013-12-13 09:13:00,
2013-12-13 20:18:00,76.1,67.2,29.81,ENE,58,0.0,3.0,74,0.00,,,0.00,Wunderground v.1.15,2013-12-13 09:18:00,
2013-12-13 20:24:00,75.8,67.3,29.81,South,181,1.0,1.0,75,0.00,,,0.00,Wunderground v.1.15,2013-12-13 09:24:00,
2013-12-13 20:29:00,75.7,67.2,29.81,ENE,72,0.0,1.0,75,0.00,,,0.00,Wunderground v.1.15,2013-12-13 09:29:00,
2013-12-13 20:34:00,75.5,67.0,29.81,ENE,60,0.0,3.0,75,0.00,,,0.00,Wunderground v.1.15,2013-12-13 09:34:00,
2013-12-13 20:39:00,75.3,67.2,29.81,ESE,108,0.0,3.0,76,0.00,,,0.00,Wunderground v.1.15,2013-12-13 09:39:00,
2013-12-13 20:44:00,75.0,66.9,29.81,ENE,71,0.0,3.0,76,0.00,,,0.00,Wunderground v.1.15,2013-12-13 09:44:00,
2013-12-13 20:49:00,74.8,66.7,29.81,ENE,68,1.0,3.0,76,0.00,,,0.00,Wunderground v.1.15,2013-12-13 09:49:00,
2013-12-13 20:54:00,74.7,65.9,29.82,East,79,3.0,3.0,74,0.00,,,0.00,Wunderground v.1.15,2013-12-13 09:54:00,
2013-12-13 20:59:00,74.5,65.7,29.82,SSE,159,1.0,3.0,74,0.00,,,0.00,Wunderground v.1.15,2013-12-13 09:59:00,
2013-12-13 21:04:00,74.4,65.6,29.82,SSW,193,0.0,2.0,74,0.00,,,0.00,Wunderground v.1.15,2013-12-13 10:04:00,
2013-12-13 21:09:00,74.3,65.9,29.81,South,188,0.0,3.0,75,0.00,,,0.00,Wunderground v.1.15,2013-12-13 10:09:00,
2013-12-13 21:14:00,74.2,65.8,29.82,ESE,122,0.0,3.0,75,0.00,,,0.00,Wunderground v.1.15,2013-12-13 10:14:00,
2013-12-13 21:19:00,74.1,65.7,29.82,SSW,199,1.0,3.0,75,0.00,,,0.00,Wunderground v.1.15,2013-12-13 10:19:00,
2013-12-13 21:24:00,73.9,65.1,29.82,SW,217,0.0,2.0,74,0.00,,,0.00,Wunderground v.1.15,2013-12-13 10:24:00,
2013-12-13 21:29:00,73.7,64.9,29.82,SSW,196,0.0,2.0,74,0.00,,,0.00,Wunderground v.1.15,2013-12-13 10:29:00,
2013-12-13 21:34:00,73.5,64.7,29.82,East,98,0.0,2.0,74,0.00,,,0.00,Wunderground v.1.15,2013-12-13 10:34:00,
2013-12-13 21:39:00,73.3,64.5,29.83,East,91,0.0,2.0,74,0.00,,,0.00,Wunderground v.1.15,2013-12-13 10:39:00,
2013-12-13 21:44:00,73.0,64.2,29.83,SW,227,1.0,1.0,74,0.00,,,0.00,Wunderground v.1.15,2013-12-13 10:44:00,
2013-12-13 21:49:00,72.8,64.0,29.83,ESE,108,0.0,3.0,74,0.00,,,0.00,Wunderground v.1.15,2013-12-13 10:49:00,
2013-12-13 21:54:00,72.7,64.3,29.83,South,188,0.0,1.0,75,0.00,,,0.00,Wunderground v.1.15,2013-12-13 10:54:00,
2013-12-13 21:59:00,72.4,64.0,29.83,East,94,0.0,1.0,75,0.00,,,0.00,Wunderground v.1.15,2013-12-13 10:59:00,
2013-12-13 22:04:00,72.3,64.3,29.83,SW,214,0.0,1.0,76,0.00,,,0.00,Wunderground v.1.15,2013-12-13 11:04:00,
2013-12-13 22:09:00,72.0,64.0,29.83,SSW,213,0.0,1.0,76,0.00,,,0.00,Wunderground v.1.15,2013-12-13 11:09:00,
2013-12-13 22:15:00,71.6,64.0,29.84,SW,214,0.0,1.0,77,0.00,,,0.00,Wunderground v.1.15,2013-12-13 11:15:00,
2013-12-13 22:20:00,71.4,63.8,29.84,SSW,213,0.0,0.0,77,0.00,,,0.00,Wunderground v.1.15,2013-12-13 11:20:00,
2013-12-13 22:25:00,71.3,63.7,29.84,SSW,192,0.0,1.0,77,0.00,,,0.00,Wunderground v.1.15,2013-12-13 11:25:00,
2013-12-13 22:30:00,71.2,63.6,29.84,SSW,192,0.0,0.0,77,0.00,,,0.00,Wunderground v.1.15,2013-12-13 11:30:00,
2013-12-13 22:35:00,70.9,63.7,29.84,SSW,192,0.0,1.0,78,0.00,,,0.00,Wunderground v.1.15,2013-12-13 11:35:00,
2013-12-13 22:40:00,70.6,63.4,29.84,SSW,192,0.0,0.0,78,0.00,,,0.00,Wunderground v.1.15,2013-12-13 11:40:00,
2013-12-13 22:45:00,70.3,63.5,29.84,SSW,192,0.0,0.0,79,0.00,,,0.00,Wunderground v.1.15,2013-12-13 11:45:00,
2013-12-13 22:50:00,70.1,63.3,29.84,SSW,192,0.0,0.0,79,0.00,,,0.00,Wunderground v.1.15,2013-12-13 11:50:00,
2013-12-13 22:55:00,69.9,63.4,29.83,SSW,192,0.0,0.0,80,0.00,,,0.00,Wunderground v.1.15,2013-12-13 11:55:00,
2013-12-13 23:00:00,69.7,63.3,29.83,South,191,0.0,0.0,80,0.00,,,0.00,Wunderground v.1.15,2013-12-13 12:00:00,
2013-12-13 23:14:00,69.3,63.2,29.84,SSW,192,0.0,0.0,81,0.00,,,0.00,Wunderground v.1.15,2013-12-13 12:14:00,
2013-12-13 23:20:00,70.1,63.3,29.84,North,-999,0.0,0.0,79,0.00,,,-99.99,WeatherLink 6.0.3,2013-12-13 12:20:00,
2013-12-13 23:26:00,68.8,63.1,29.84,SSW,192,0.0,0.0,82,0.00,,,0.00,Wunderground v.1.15,2013-12-13 12:26:00,
2013-12-13 23:31:00,68.6,63.2,29.83,SSW,192,0.0,0.0,83,0.00,,,0.00,Wunderground v.1.15,2013-12-13 12:31:00,
2013-12-13 23:32:00,68.5,63.1,29.83,South,191,0.0,0.0,83,0.00,,,0.00,Wunderground v.1.15,2013-12-13 12:32:00,
2013-12-13 23:38:00,68.3,62.9,29.83,SSW,192,0.0,0.0,83,0.00,,,0.00,Wunderground v.1.15,2013-12-13 12:38:00,
2013-12-13 23:44:00,68.0,63.0,29.83,South,191,0.0,0.0,84,0.00,,,0.00,Wunderground v.1.15,2013-12-13 12:44:00,
2013-12-13 23:49:00,67.9,62.9,29.83,South,191,0.0,0.0,84,0.00,,,0.00,Wunderground v.1.15,2013-12-13 12:49:00,
2013-12-13 23:54:00,67.6,62.6,29.83,SSW,192,0.0,0.0,84,0.00,,,0.00,Wunderground v.1.15,2013-12-13 12:54:00,
2013-12-13 23:59:00,67.4,62.7,29.83,SSW,192,0.0,0.0,85,0.00,,,0.00,Wunderground v.1.15,2013-12-13 12:59:00,